Location: Coopersdale
(40.3556°N, 78.9372°W)
Time: 10:11:03
(UTC+00:00)

Vanguard 1 - Pass Details

Date: 28 January 2021
Orbit: 649 x 3834 km, 34.2° (Epoch: 07 March)

Event Time Altitude Azimuth Distance (km) Brightness Sun altitude
Rises 00:39:47 0° 285° (WNW) 7,956 15.9 -25.0°
Reaches altitude 10° 00:46:32 10° 276° (W) 6,930 15.4 -26.3°
Maximum altitude 01:03:24 28° 229° (SW) 4,955 13.9 -29.5°
Drops below altitude 10° 01:16:23 10° 178° (S) 5,241 13.7 -32.0°
Sets 01:20:39 0° 166° (SSE) 5,799 13.9 -32.8°
